Showing default

OPS 1427 (OV3-4), 2201

Orbit data source: Space-Track

OPS 1427 (OV3-4), 2201 is a payload satellite owned by USAF OAR (US) in LEO that was launched on Fri, 10 Jun 1966 UTC via an SCOUT B launch vehicle from the Wallops Island (WLPIS). Payload-class satellites include a variety of spacecraft equipped with specific instruments for various scientific and technological missions. These include communications satellites like Starlink; space stations such as the ISS; scientific satellites like the Hubble; Earth observation satellites from companies like Planet Labs, Umbra, and HawkEye 360; GPS; miniature CubeSats for education and research; and military/defense satellites.

Loading next visibility...
Identifier
2201, 1966-052A
Orbit
LEO
Country
Flag of USUS
Related business
Manufacturer
Space General
Mission
Spacecraft
Bus & Motor
OV3, Unknown motor
Mass
78 kg wet, 78 kg dry
Launch date (UTC)
1966-06-10 (59 years ago)
Launch vehicle
SCOUT B
Launch site
Wallops Island (WLPIS)
Object type
Payload
Rocket body
Debris
Shape & HBR
Unknown
Radar Cross Section
Medium (>0.1 m² and <1 m²)

Expand to show TLE details & history
Last TLE update: 23 hours ago

TLE from 23 hours ago
0 OPS 1427 (OV3-4)
1 02201U 66052A   25310.77376192 -.00000041  00000-0  72660-5 0  9999
2 02201  40.8842 107.3864 2237269 122.4015 261.2921 10.10084786174839
Epoch: 2025-11-06T18:34Z
TLE epoch observation values (Epoch: 2025-11-06T18:34:13.029Z)
Latitude
-0.00003°
Longitude
142.60481°
Altitude
3,376.323 km
Speed
6.136 km/s
True Right ascension
07h 09m 32s
True Declination
0° 00' 00"
Sunlit
Object was in daylight at epoch
Visualization orbit readout
Latitude
Unknown
Longitude
Unknown
Altitude
Unknown
Speed
Unknown
Apparent Right ascension
Unknown
Apparent Declination
Unknown
Sunlit
N/A
Visualization observer readout
Local Sidereal Time
13:29:06
Azimuth
Unknown
Elevation
Unknown
Doppler factor
Unknown
Orbital elements
Apogee altitude
4,686.532 km
Perigee altitude
640.753 km
Semi-major axis
9,041.779 km
Eccentricity
0.22373
Inclination
40.8842°
RAAN
107.3864°
Arg. of periapsis
122.4015°
True anomaly
237.66366°
Mean anomaly
261.2921°
Eccentric anomaly
249.30094°
Mean motion
2.52442 °/min
Orbital period
142.61 mins
BSTAR
0.000007266
Loading maneuver chart data...
Computing Atmospheric mass density...
Loading historical data...
Loading historical data...
Loading historical data...
Loading historical data...
Loading historical data...
Loading historical data...
Loading historical data...
Other satellites on launch #52 in the year 1966 (1966-06-10 UTC)

Documentation

Showing up to 5 results
|